Presure
206 166 203 188 217 200 82 204 123 224 228 208 91 103 102 238 76 81 107 100 94 168 193 185 139 77 94 90 101 119 122 111 209 87 112 115 111 108 214 204 191 192 201
209 205 202 212 194 219 200 215 233 240 227 235 196 207 210 87 92 184 84 195 219 201 183 183 121 89 91 91 85 119 107 108 109 103 109 213 209 200 186 192 203 208 202
209 206 188 190 190 209 199 216 216 196 88 89 165 220 208 101 87 241 80 231 209 226 90 199 95 99 101 101 188 187 123 193 190 181 212 205 208 179 213 211 206 211 205
213 219 215 222 213 212 140 210 227 231 235 233 235 86 94 204 219 238 95 210 218 221 227 211 197 128 163 177 180 181 189 201 191 160 200 194 196 192 188 186 211 214 211
214 215 214 216 218 219 219 218 97 234 230 237 233 246 256 194 208 215 222 228 101 102 98 217 106 109 180 151 102 102 175 189 187 192 192 178 194 188 186 185 184 207 207
221 212 208 212 216 216 224 225 229 231 97 197 217 214 245 242 205 204 203 225 193 95 233 226 232 222 207 191 175 176 172 166 198 190 185 180 181 183 184 181 184 200 210
221 212 210 218 220 220 219 224 226 230 227 242 236 230 237 238 236 210 201 168 88 207 177 231 225 221 211 212 187 184 179 171 165 179 186 178 175 184 180 182 187 189 202
151 233 231 231 227 228 230 231 227 227 237 237 235 223 232 238 232 259 194 256 239 218 225 232 227 225 222 213 196 196 191 181 175 170 167 177 179 183 186 183 185 191 199
247 242 238 237 236 238 246 77 238 238 235 237 236 223 225 229 156 262 260 258 240 212 213 232 233 229 224 217 200 200 193 188 185 181 178 180 182 182 188 191 183 193 207
265 274 276 269 265 256 246 249 248 243 188 179 234 227 170 228 249 253 259 261 243 230 221 220 229 228 224 218 212 193 192 194 184 185 183 183 186 188 186 190 182 201 200
110 200 214 225 220 228 236 231 228 231 192 234 232 229 223 224 233 251 251 258 242 238 227 219 221 226 223 218 207 192 191 197 188 185 187 185 194 185 192 185 194 196 191
335 242 234 224 224 229 225 230 227 225 236 237 229 223 218 222 236 240 250 250 248 233 228 219 216 222 227 217 207 195 195 198 195 188 189 191 188 186 189 191 185 192 193
343 336 387 232 235 240 242 231 238 234 235 239 84 84 214 216 239 236 239 246 250 245 235 227 216 216 228 221 209 205 195 194 195 192 192 192 184 189 187 187 192 193 150
343 364 378 319 282 230 287 291 262 251 248 238 230 214 220 246 240 233 239 241 245 250 243 231 219 218 228 224 212 207 199 193 200 194 193 183 185 182 191 193 165 201 204
390 426 355 300 176 302 299 286 266 206 249 234 214 217 209 243 235 236 236 234 238 248 254 236 221 218 230 226 217 211 208 202 198 191 181 184 177 191 193 149 173 208 220
390 423 273 264 259 292 272 256 251 245 243 219 201 199 235 239 226 226 229 231 235 251 258 239 219 215 228 224 218 212 202 200 184 183 181 183 186 138 195 202 211 217 251
405 276 249 290 250 263 252 246 250 240 228 219 212 202 235 223 222 234 228 229 241 255 257 242 215 219 229 222 217 212 210 184 182 180 188 188 152 183 201 213 230 287 266
276 253 280 274 261 249 246 244 208 214 211 218 219 253 265 219 245 234 228 240 255 254 249 221 215 232 223 219 214 207 182 181 178 185 185 195 201 205 215 232 280 258 217
267 278 265 254 247 243 236 198 197 190 216 218 224 202 205 216 227 229 240 251 249 245 220 215 232 223 218 213 188 181 178 183 190 149 201 200 206 218 245 220 249 213 229
257 254 246 237 234 233 230 218 217 202 210 215 211 207 217 231 234 249 253 246 233 213 220 225 220 216 210 186 182 187 189 183 137 199 205 211 232 276 260 214 214 229 222
225 230 225 226 227 217 215 214 223 224 222 226 217 240 244 259 193 243 230 212 208 223 220 216 213 179 189 187 187 187 191 174 199 207 226 235 262 245 215 216 221 230 241
249 225 223 219 211 214 220 216 227 238 261 287 289 259 244 235 221 207 206 219 220 219 218 185 186 187 185 185 193 138 199 205 219 221 264 251 218 212 217 223 230 243 407
269 261 262 265 265 276 287 285 268 254 240 236 227 216 207 205 212 220 221 221 219 199 191 183 183 188 133 195 197 204 209 225 258 254 237 219 212 220 224 233 250 397 368
231 235 235 234 232 228 213 224 217 213 208 202 198 212 220 220 220 218 208 185 182 183 187 190 193 134 200 205 213 215 231 256 247 216 216 217 222 229 240 360 393 364 345
214 215 217 216 217 217 218 220 223 215 224 222 220 220 220 209 190 184 186 187 190 192 194 199 203 207 213 221 237 254 247 228 220 209 215 224 238 246 426 385 358 338 330
201 200 201 202 204 212 216 219 221 222 222 221 198 190 184 185 190 191 192 194 197 161 207 212 235 252 231 251 242 236 224 212 206 220 240 244 493 424 380 352 334 326 320
Wind_Speed
77 59 75 71 72 67 36 68 52 68 63 60 44 57 55 63 29 31 59 53 54 62 65 65 54 29 50 49 56 61 62 63 57 46 65 66 66 68 63 63 66 68 69
77 73 74 75 72 71 64 65 64 68 67 63 60 60 60 43 51 62 37 64 70 68 68 67 54 50 51 50 40 61 61 65 67 66 67 56 56 59 63 65 66 66 69
80 77 75 75 74 70 69 62 66 63 54 51 56 62 62 53 51 61 35 66 69 74 50 68 51 56 59 60 61 62 68 63 62 61 57 59 58 65 63 64 66 67 70
82 80 78 71 71 74 63 70 66 65 66 65 62 45 56 62 62 60 58 62 66 73 76 75 68 57 63 64 62 61 62 61 64 65 57 59 60 63 67 68 67 70 72
85 81 77 71 70 70 70 74 57 63 66 65 62 59 57 61 62 62 61 63 54 57 55 75 64 67 65 64 65 66 62 64 66 66 65 64 63 65 66 71 72 71 75
87 78 75 77 76 74 75 75 70 64 64 65 59 57 57 59 61 63 64 65 68 48 72 75 74 76 73 68 68 65 65 68 67 67 67 67 69 68 68 69 74 75 80
87 79 79 83 84 79 76 75 73 68 65 66 62 61 57 58 59 63 66 46 49 70 63 74 74 74 74 73 68 67 67 69 71 69 70 70 70 72 71 72 74 76 80
54 97 95 92 88 84 79 74 77 73 69 67 63 62 58 56 58 50 68 58 67 74 75 74 72 73 73 72 71 70 69 70 71 72 71 72 73 75 76 76 76 78 81
97 99 97 92 87 83 76 33 73 73 70 68 63 64 61 56 51 50 50 59 65 69 74 73 73 73 73 72 72 71 71 71 73 74 74 75 76 77 79 80 80 82 82
88 88 88 89 84 79 71 69 69 69 56 59 63 64 48 57 52 51 50 56 65 71 75 73 71 72 71 71 72 72 72 74 74 75 76 77 79 81 83 84 84 89 87
41 71 77 81 77 72 69 66 66 64 56 64 63 62 62 61 55 51 51 51 63 70 74 74 72 71 71 71 73 72 73 76 75 75 78 78 81 83 85 86 90 91 92
72 89 85 82 80 75 70 68 67 67 63 61 61 60 61 59 57 52 50 52 62 70 73 73 72 71 71 70 73 73 74 76 78 77 78 80 82 85 87 90 90 94 97
61 55 52 83 82 75 71 68 71 66 63 60 34 32 57 59 57 57 53 51 56 67 72 72 70 69 70 71 73 75 75 76 79 79 79 82 82 87 89 91 95 99 79
51 45 48 59 62 59 65 65 65 65 59 57 53 53 53 58 58 54 52 51 56 61 71 70 68 68 70 71 73 76 76 76 80 79 80 80 85 86 93 96 85 104 109
23 33 53 51 30 49 48 50 54 53 54 52 49 47 51 54 54 52 50 52 56 59 63 68 66 66 68 70 73 75 77 78 79 78 76 83 82 93 96 70 85 110 117
21 39 48 42 36 39 42 46 48 49 47 46 40 46 50 49 48 49 50 52 58 57 55 65 62 64 67 69 72 74 75 77 73 77 81 86 91 65 100 105 112 115 122
26 42 36 35 33 39 41 42 43 43 43 45 43 39 45 45 48 52 48 52 55 53 53 60 60 63 66 68 71 74 76 71 75 79 87 91 73 90 102 111 118 113 115
38 34 34 35 34 36 38 38 31 37 34 38 36 34 42 43 49 49 51 52 48 46 51 57 59 63 65 68 71 73 69 74 77 86 88 95 99 106 111 116 107 113 107
27 30 32 34 34 35 38 27 27 40 37 35 32 41 40 46 49 50 48 46 43 47 52 56 59 63 65 69 65 68 71 79 86 67 96 99 105 111 115 95 108 104 112
25 28 29 29 31 34 35 30 31 38 33 37 35 39 44 49 48 45 41 40 45 49 54 56 60 63 65 64 68 74 80 82 63 95 101 106 112 101 104 103 105 115 115
20 23 24 26 29 25 26 29 35 32 34 39 40 42 42 38 40 36 39 44 48 52 55 59 60 57 65 69 74 78 83 78 94 100 107 108 101 104 102 106 110 119 124
14 19 22 24 21 23 26 27 32 35 33 34 33 29 29 31 36 40 44 48 51 55 58 54 59 64 69 74 80 58 89 95 101 103 100 101 100 101 106 111 119 124 56
12 16 14 15 17 17 17 21 23 20 19 21 24 29 33 37 41 44 47 51 54 53 55 58 64 70 53 80 85 91 95 101 96 98 99 100 99 106 113 119 126 54 59
12 12 12 10 9 9 13 13 16 19 22 26 29 34 36 40 44 48 47 46 50 55 62 67 72 54 81 86 91 92 95 94 95 94 98 102 107 115 119 76 49 55 59
5 5 5 6 8 10 13 15 18 22 23 27 31 35 40 42 41 43 48 53 59 64 69 73 78 83 88 93 90 89 92 91 94 95 101 108 116 121 39 45 49 55 58
8 10 11 13 15 16 18 20 22 25 27 31 34 35 37 41 47 51 56 61 66 56 75 79 80 78 71 81 86 90 93 92 93 102 112 115 36 33 39 45 50 53 57
Wind_Direction
255 253 259 253 262 259 249 262 253 264 261 260 248 247 247 260 259 263 257 260 263 258 259 260 269 290 280 285 279 273 274 279 279 298 284 286 286 287 279 280 282 283 284
255 252 256 259 259 263 261 264 264 264 264 261 258 259 259 253 253 258 271 259 261 261 256 258 266 277 280 282 285 277 280 281 281 284 285 276 278 278 281 282 282 284 284
256 256 252 255 258 260 261 263 264 261 251 255 260 259 259 256 261 257 273 258 260 260 273 262 272 274 277 278 272 274 280 277 279 280 276 276 277 281 281 282 283 282 282
254 257 257 257 256 261 252 263 265 264 264 263 263 258 255 258 261 257 259 256 256 258 259 262 263 272 264 264 269 275 278 277 280 282 279 281 281 283 285 287 286 284 284
254 256 258 258 259 260 261 260 240 268 265 262 261 265 264 256 258 260 258 256 262 264 270 260 272 273 262 269 282 288 273 279 279 279 282 284 282 283 286 291 292 290 289
255 253 256 259 261 261 264 265 266 263 246 261 261 263 266 261 256 259 259 257 259 277 257 260 260 262 266 266 267 268 271 275 277 279 283 284 286 288 290 292 293 295 293
255 254 253 258 259 258 258 262 262 262 260 265 261 260 266 265 261 257 258 259 273 258 262 257 259 263 264 265 268 270 271 274 278 281 282 285 288 289 291 292 294 295 295
251 255 256 255 256 257 258 258 261 261 263 260 259 258 264 268 264 263 259 244 250 256 257 256 258 259 262 264 269 270 272 275 277 280 283 286 289 291 293 294 294 295 295
247 250 251 253 254 256 254 263 255 257 258 260 261 260 261 263 267 267 261 246 246 254 257 256 257 258 260 262 267 269 272 274 277 279 283 286 289 292 293 293 294 294 294
248 249 250 250 249 249 249 249 248 251 257 257 259 260 264 263 266 263 263 255 246 249 256 258 257 259 261 262 264 269 271 272 276 280 284 287 290 291 293 293 295 295 295
263 244 245 246 248 244 246 245 247 250 253 252 256 259 262 266 269 267 265 262 249 250 253 257 260 258 259 262 264 268 271 272 277 281 284 288 288 291 292 294 294 295 297
253 238 239 246 248 245 244 246 247 249 250 249 253 258 262 266 267 265 265 259 253 250 252 255 258 260 260 261 263 269 272 273 276 281 285 287 289 291 292 293 296 297 297
250 245 234 239 243 243 243 248 247 248 250 245 269 280 265 270 265 265 266 264 262 255 253 254 258 261 261 261 264 268 273 276 278 282 285 287 291 292 294 296 297 297 294
240 239 220 209 229 242 236 233 235 240 242 242 249 260 266 261 263 266 268 269 267 266 257 255 258 261 262 263 265 268 273 278 279 283 286 291 292 295 295 296 295 298 298
225 229 191 206 234 219 223 222 222 242 234 242 255 259 267 261 263 267 269 267 269 269 267 258 260 263 264 265 266 270 273 278 281 286 291 291 294 294 296 295 298 299 299
207 213 200 210 212 206 208 212 219 228 232 245 260 258 260 263 267 266 268 268 271 275 271 260 262 266 267 267 269 273 277 280 288 291 292 294 294 293 298 299 300 300 302
202 177 198 187 210 197 205 213 219 224 234 245 255 263 264 266 270 274 274 275 274 273 271 265 265 268 269 270 273 276 278 288 289 292 292 294 294 297 299 300 302 302 300
160 178 173 177 187 198 207 213 220 237 238 246 255 275 263 274 272 272 274 275 275 272 269 264 268 270 271 272 275 277 287 289 293 293 293 295 298 298 300 302 302 301 307
150 158 169 178 190 200 207 211 230 246 249 254 253 269 281 275 275 274 275 272 271 270 266 268 271 272 274 275 282 287 291 292 292 294 296 298 299 301 302 299 300 308 307
154 164 175 186 197 206 215 231 239 245 259 258 260 263 268 267 268 270 267 271 270 266 269 271 272 273 277 286 289 290 290 294 295 297 298 300 301 300 300 304 309 308 311
168 175 187 197 203 217 228 240 248 250 258 265 270 269 267 264 268 269 268 264 267 270 270 272 277 287 287 289 290 292 293 296 296 298 300 300 299 301 306 308 310 310 309
175 199 208 214 219 233 241 249 256 257 254 251 254 257 262 267 265 265 268 269 270 272 275 287 288 290 291 291 293 296 296 297 298 300 298 298 303 306 308 310 310 309 311
148 166 182 200 210 220 227 230 230 234 243 251 258 261 264 267 268 270 271 273 276 282 286 291 291 290 296 294 294 295 297 299 298 297 300 303 307 309 310 309 308 313 312
135 137 142 150 164 191 228 228 241 251 256 262 269 267 268 270 271 273 279 293 292 292 291 290 291 296 293 294 296 298 298 296 298 302 304 307 310 308 307 308 313 312 311
147 166 193 219 238 245 251 255 260 266 269 271 272 274 275 279 287 292 293 292 290 290 291 292 293 295 297 298 297 295 297 301 303 306 308 308 305 305 312 313 311 310 312
234 242 250 256 261 266 268 269 271 274 277 278 281 287 290 292 290 290 290 291 291 294 293 296 297 296 297 294 296 298 302 306 306 306 303 304 308 312 312 311 311 313 314